Location: Amsterdam
(30.7274°N, 84.4357°W)
Time: 20:49:25
(UTC+00:00)

Explorer 11/Cluster Stage 4 - Pass Details

Date: 19 February 2026
Orbit: 463 x 1176 km, 28.8° (Epoch: 7 March)

Event Time Altitude Azimuth Distance (km) Brightness Sun altitude
Rises 19:28:19 0° 263° (W) 2,787 9.8 42.2°
Reaches altitude 10° 19:30:46 10° 260° (W) 1,796 9.1 41.9°
Maximum altitude 19:34:47 65° 179° (S) 539 7.0 41.4°
Drops below altitude 10° 19:38:23 10° 96° (E) 1,615 8.1 41.0°
Sets 19:40:29 0° 94° (E) 2,474 8.9 40.7°
